CZ-6A DEB

Satellite information

Favourite Embed

Satellite Type and Status

DEBRISIN ORBIT

Key statistics

Satellite CZ-6A DEB at a glance.

Uptime

1030

Days in orbit

Revolutions

≈ 15.3

Per day

Orbit

SSO

Sun Synchronous Orbit

Inclination

98.8

Latest

Satellite identification and parameters

Extended collection of information and parameters for CZ-6A DEB.

Object identification

Identified? True

Debris? True

Object name: CZ-6A DEB

International designator: 2022-151AAC

Object number (NORAD): 55880

Object ID (CCSDS): 55880

Country: PEOPLES REPUBLIC OF CHINA (PRC)

Current information (Y/N): Y

RCS size: SMALL

Orbital parameters

Period: 94.374 minutes

Inclination: 98.7729 deg

SMA: 6866.366 km

Apoapsis: 515.113 km

Periapsis: 461.349 km

RAAN: 352.0702 deg

Eccentricy: 0.00391504

Argument of periapsis: 320.2939 deg

Mean anomaly: 39.543 deg

Mean motion: 15.25851754 rev/day

Mean motion (dot): 0.00183142 rev/day2

B* drag term: 0.0068451279 1/REarth

Two-line elements (TLE)

Creation date: Sept. 6, 2025, 2:09 a.m.

Reference frame: TEME

Reference center: EARTH

Epoch: Sept. 5, 2025, 5:36 p.m. UTC

TLE line 0: 0 CZ-6A DEB

TLE line 1: 1 55880U 22151AAC 25248.73335884 .00183142 00000-0 68451-2 0 9994

TLE line 2: 2 55880 98.7729 352.0702 0039150 320.2939 39.5430 15.25851754138497

Live tracking on map

Real-time ground track for satellite CZ-6A DEB.

In-orbit conjunctions

A list of the most updated potential collisions computed for object CZ-6A DEB.

Target Orbit TCA Probability of collision Miss distance Type
TITAN 4B R/B LEO 2024-12-19 16:42:06 0.0002804116 120.0 (m) ROCKET BODY

Associated space launch

Chinese satellite reported for atmospheric/ocean/environmental/spatial parameter research purposes, details TBD.

CZ-6A DEB was lifted into orbit during the mission ‘Long March 6A | Yunhai 3’, on board a Long March 6A space rocket.

The launch took place on Nov. 11, 2022, 10:52 p.m. from Launch Complex 9A.

For more information about the launch, click the button.

Launch to space Long March 6A | Yunhai 3
Long March 6A | Yunhai 3

Agency: N/A

Status: Launch Successful

Launch date: Nov. 11, 2022, 10:52 p.m. UTC

Rocket: Long March 6A

Launch pad: Launch Complex 9A

Location: Taiyuan Satellite Launch Center, People's Republic of China

...

Latest news about this satellite

There are no fresh news available about this satellite. Check back as we update our databases every day.


Newsletter sign-up

Weekly statistics, charts and insights to help you stay on top of the space industry.